Tracking 27420 objects as of 28-May-2023
HD Live streaming from Space Station
objects crossing your sky now

CZ-4 DEB

Track CZ-4 DEB now!
10-day predictions


NORAD ID: 37623
Int'l Code: 1990-081DK
Perigee: 825.6 km
Apogee: 859.5 km
Inclination: 98.6 °
Period: 101.6 minutes
Semi major axis: 7213 km
RCS: 0.0158 m2 (small)
Launch date: September 3, 1990
Source: People's Republic of China (PRC)
Launch site: Taiyaun Space Center, China (TSC)

Note: This is SATELLITE DEBRIS
Your satellite tracking list
Your tracking list is empty




NASA's NSSDC Master Catalog

Two Line Element Set (TLE):
1 37623U 90081DK  23147.23567002  .00000534  00000-0  28586-3 0  9995
2 37623  98.6444 141.6704 0023491 111.7916 248.5762 14.17023350508885
Source of the keplerian elements: AFSPC